Location: Uhersky Brod
(49.0330°N, 17.6500°E)
Time: 12:13:10
(UTC+02:00)

ISS - Pass Details

Date: 26 May 2025
Orbit: 415 x 418 km, 51.6° (Epoch: 19 June)

Event Time Altitude Azimuth Distance (km) Brightness Sun altitude
Rises 21:25:14 0° 285° (WNW) 2,361 1.3 -6.7°
Reaches altitude 10° 21:27:44 10° 267° (W) 1,493 -0.3 -7.0°
Maximum altitude 21:30:10 19° 220° (SW) 1,067 -1.7 -7.2°
Drops below altitude 10° 21:32:35 10° 174° (S) 1,484 -1.4 -7.5°
Enters shadow 21:33:17 - 166° (SSE) 1,708 -1.2 -7.6°
